Time,TemperatureF,DewpointF,PressureIn,WindDirection,WindDirectionDegrees,WindSpeedMPH,WindSpeedGustMPH,Humidity,HourlyPrecipIn,Conditions,Clouds,dailyrainin,SoftwareType,DateUTC
2013-02-12 00:00:00,29.6,28.9,29.57,NNE,32,0.0,0.0,97,0.00,,,0.12,Wunderground v.1.15,2013-02-12 05:00:00,
2013-02-12 00:01:00,29.6,28.9,29.58,NNE,32,0.0,0.0,97,0.00,,,0.00,Wunderground v.1.15,2013-02-12 05:01:00,
2013-02-12 00:04:00,29.7,29.0,29.58,SW,222,0.0,0.0,97,0.00,,,0.00,Wunderground v.1.15,2013-02-12 05:04:00,
2013-02-12 00:06:00,29.7,29.0,29.57,SW,222,0.0,0.0,97,0.00,,,0.00,Wunderground v.1.15,2013-02-12 05:06:00,
2013-02-12 00:12:00,29.7,29.0,29.57,SW,221,0.0,0.0,97,0.00,,,0.00,Wunderground v.1.15,2013-02-12 05:12:00,
2013-02-12 00:18:00,29.6,28.6,29.57,SW,222,0.0,0.0,96,0.00,,,0.00,Wunderground v.1.15,2013-02-12 05:18:00,
2013-02-12 00:23:00,29.6,28.9,29.58,SW,222,0.0,0.0,97,0.00,,,0.00,Wunderground v.1.15,2013-02-12 05:23:00,
2013-02-12 00:29:00,29.7,29.0,29.57,SW,222,0.0,0.0,97,0.00,,,0.00,Wunderground v.1.15,2013-02-12 05:29:00,
2013-02-12 00:34:00,29.7,29.0,29.57,SW,222,0.0,0.0,97,0.00,,,0.00,Wunderground v.1.15,2013-02-12 05:34:00,
2013-02-12 00:39:00,29.7,29.0,29.56,SW,222,0.0,0.0,97,0.00,,,0.00,Wunderground v.1.15,2013-02-12 05:39:00,
2013-02-12 00:45:00,29.7,29.0,29.56,SW,222,0.0,0.0,97,0.00,,,0.00,Wunderground v.1.15,2013-02-12 05:45:00,
2013-02-12 00:51:00,29.7,29.0,29.56,SW,221,0.0,0.0,97,0.00,,,0.00,Wunderground v.1.15,2013-02-12 05:51:00,
2013-02-12 00:56:00,29.7,29.0,29.56,SW,222,0.0,0.0,97,0.00,,,0.00,Wunderground v.1.15,2013-02-12 05:56:00,
2013-02-12 01:01:00,29.7,29.0,29.55,SW,222,0.0,0.0,97,0.00,,,0.00,Wunderground v.1.15,2013-02-12 06:01:00,
2013-02-12 01:07:00,29.7,28.7,29.55,SW,222,0.0,0.0,96,0.00,,,0.00,Wunderground v.1.15,2013-02-12 06:07:00,
2013-02-12 01:13:00,29.5,28.5,29.54,SW,222,0.0,1.0,96,0.00,,,0.00,Wunderground v.1.15,2013-02-12 06:13:00,
2013-02-12 01:18:00,29.4,28.7,29.54,SW,222,0.0,1.0,97,0.00,,,0.00,Wunderground v.1.15,2013-02-12 06:18:00,
2013-02-12 01:24:00,29.4,28.7,29.54,SSW,205,0.0,0.0,97,0.00,,,0.00,Wunderground v.1.15,2013-02-12 06:24:00,
2013-02-12 01:29:00,29.4,28.7,29.54,SSW,206,0.0,0.0,97,0.00,,,0.00,Wunderground v.1.15,2013-02-12 06:29:00,
2013-02-12 01:34:00,29.4,28.7,29.54,SSE,148,0.0,0.0,97,0.00,,,0.00,Wunderground v.1.15,2013-02-12 06:34:00,
2013-02-12 01:39:00,29.4,28.7,29.54,SSE,148,0.0,0.0,97,0.00,,,0.00,Wunderground v.1.15,2013-02-12 06:39:00,
2013-02-12 01:45:00,29.5,28.8,29.54,SSE,148,0.0,0.0,97,0.00,,,0.00,Wunderground v.1.15,2013-02-12 06:45:00,
2013-02-12 01:51:00,29.5,28.8,29.53,SSE,148,0.0,0.0,97,0.00,,,0.00,Wunderground v.1.15,2013-02-12 06:51:00,
2013-02-12 01:56:00,29.5,28.8,29.53,SSE,148,0.0,0.0,97,0.00,,,0.00,Wunderground v.1.15,2013-02-12 06:56:00,
2013-02-12 02:01:00,29.5,28.8,29.53,SSE,148,0.0,0.0,97,0.00,,,0.00,Wunderground v.1.15,2013-02-12 07:01:00,
2013-02-12 02:07:00,29.5,28.8,29.53,SSE,148,0.0,0.0,97,0.00,,,0.00,Wunderground v.1.15,2013-02-12 07:07:00,
2013-02-12 02:12:00,29.5,28.8,29.53,SSE,148,0.0,0.0,97,0.00,,,0.00,Wunderground v.1.15,2013-02-12 07:12:00,
2013-02-12 02:17:00,29.6,28.9,29.53,SSE,148,0.0,0.0,97,0.00,,,0.00,Wunderground v.1.15,2013-02-12 07:17:00,
2013-02-12 02:23:00,29.6,28.9,29.52,SSE,148,0.0,0.0,97,0.00,,,0.00,Wunderground v.1.15,2013-02-12 07:23:00,
2013-02-12 02:28:00,29.6,28.9,29.52,SSE,148,0.0,0.0,97,0.00,,,0.00,Wunderground v.1.15,2013-02-12 07:28:00,
2013-02-12 02:34:00,29.6,28.9,29.53,South,173,0.0,0.0,97,0.00,,,0.00,Wunderground v.1.15,2013-02-12 07:34:00,
2013-02-12 02:40:00,29.7,29.0,29.53,SW,226,0.0,0.0,97,0.00,,,0.00,Wunderground v.1.15,2013-02-12 07:40:00,
2013-02-12 02:45:00,29.7,29.0,29.54,SSW,208,0.0,1.0,97,0.00,,,0.00,Wunderground v.1.15,2013-02-12 07:45:00,
2013-02-12 02:50:00,29.7,29.0,29.54,SW,233,0.0,0.0,97,0.00,,,0.00,Wunderground v.1.15,2013-02-12 07:50:00,
2013-02-12 02:55:00,29.7,29.0,29.53,SW,221,0.0,0.0,97,0.00,,,0.00,Wunderground v.1.15,2013-02-12 07:55:00,
2013-02-12 03:01:00,29.6,28.9,29.54,SW,228,0.0,0.0,97,0.00,,,0.00,Wunderground v.1.15,2013-02-12 08:01:00,
2013-02-12 03:06:00,29.7,29.0,29.54,SSW,210,0.0,0.0,97,0.00,,,0.00,Wunderground v.1.15,2013-02-12 08:06:00,
2013-02-12 03:12:00,29.7,29.0,29.53,SSW,209,0.0,0.0,97,0.00,,,0.00,Wunderground v.1.15,2013-02-12 08:12:00,
2013-02-12 03:19:00,29.7,29.0,29.53,SSW,210,0.0,0.0,97,0.00,,,0.00,Wunderground v.1.15,2013-02-12 08:19:00,
2013-02-12 03:25:00,29.6,28.9,29.53,SSW,210,0.0,0.0,97,0.00,,,0.00,Wunderground v.1.15,2013-02-12 08:25:00,
2013-02-12 03:30:00,29.6,28.9,29.53,SSW,209,0.0,0.0,97,0.00,,,0.00,Wunderground v.1.15,2013-02-12 08:30:00,
2013-02-12 03:35:00,29.6,28.9,29.53,SSW,210,0.0,0.0,97,0.00,,,0.00,Wunderground v.1.15,2013-02-12 08:35:00,
2013-02-12 03:41:00,29.5,28.8,29.53,SSW,209,0.0,0.0,97,0.00,,,0.00,Wunderground v.1.15,2013-02-12 08:41:00,
2013-02-12 03:47:00,29.4,28.7,29.53,SSW,210,0.0,1.0,97,0.00,,,0.00,Wunderground v.1.15,2013-02-12 08:47:00,
2013-02-12 03:54:00,29.2,28.5,29.53,SSW,210,0.0,0.0,97,0.00,,,0.00,Wunderground v.1.15,2013-02-12 08:54:00,
2013-02-12 04:00:00,29.0,28.3,29.53,SSW,210,0.0,0.0,97,0.00,,,0.00,Wunderground v.1.15,2013-02-12 09:00:00,
2013-02-12 04:06:00,28.7,27.7,29.52,SSW,209,0.0,0.0,96,0.00,,,0.00,Wunderground v.1.15,2013-02-12 09:06:00,
2013-02-12 04:11:00,28.6,27.6,29.52,SSW,210,0.0,0.0,96,0.00,,,0.00,Wunderground v.1.15,2013-02-12 09:11:00,
2013-02-12 04:16:00,28.5,27.8,29.52,SSW,209,0.0,0.0,97,0.00,,,0.00,Wunderground v.1.15,2013-02-12 09:16:00,
2013-02-12 04:22:00,28.5,27.8,29.52,SSW,210,0.0,0.0,97,0.00,,,0.00,Wunderground v.1.15,2013-02-12 09:22:00,
2013-02-12 04:27:00,28.5,27.8,29.52,SSW,210,0.0,0.0,97,0.00,,,0.00,Wunderground v.1.15,2013-02-12 09:27:00,
2013-02-12 04:33:00,28.6,27.9,29.53,SW,224,0.0,1.0,97,0.00,,,0.00,Wunderground v.1.15,2013-02-12 09:33:00,
2013-02-12 04:38:00,28.8,28.1,29.53,SW,224,0.0,1.0,97,0.00,,,0.00,Wunderground v.1.15,2013-02-12 09:38:00,
2013-02-12 04:43:00,28.9,28.2,29.53,SW,228,0.0,1.0,97,0.00,,,0.00,Wunderground v.1.15,2013-02-12 09:43:00,
2013-02-12 04:48:00,29.0,28.3,29.53,SW,219,1.0,1.0,97,0.00,,,0.00,Wunderground v.1.15,2013-02-12 09:48:00,
2013-02-12 04:54:00,29.2,28.5,29.54,SW,231,1.0,1.0,97,0.00,,,0.00,Wunderground v.1.15,2013-02-12 09:54:00,
2013-02-12 04:59:00,29.4,28.7,29.54,WSW,238,1.0,1.0,97,0.00,,,0.00,Wunderground v.1.15,2013-02-12 09:59:00,
2013-02-12 05:04:00,29.5,28.8,29.54,SW,229,0.0,1.0,97,0.00,,,0.00,Wunderground v.1.15,2013-02-12 10:04:00,
2013-02-12 05:09:00,29.5,28.5,29.54,SW,236,0.0,1.0,96,0.00,,,0.00,Wunderground v.1.15,2013-02-12 10:09:00,
2013-02-12 05:15:00,29.4,28.4,29.54,SW,216,0.0,1.0,96,0.00,,,0.00,Wunderground v.1.15,2013-02-12 10:15:00,
2013-02-12 05:21:00,29.3,28.3,29.54,SW,218,0.0,0.0,96,0.00,,,0.00,Wunderground v.1.15,2013-02-12 10:21:00,
2013-02-12 05:26:00,29.2,28.2,29.53,SW,218,0.0,0.0,96,0.00,,,0.00,Wunderground v.1.15,2013-02-12 10:26:00,
2013-02-12 05:31:00,29.0,28.0,29.54,SW,218,0.0,0.0,96,0.00,,,0.00,Wunderground v.1.15,2013-02-12 10:31:00,
2013-02-12 05:36:00,28.9,27.9,29.54,SW,218,0.0,0.0,96,0.00,,,0.00,Wunderground v.1.15,2013-02-12 10:36:00,
2013-02-12 05:41:00,28.8,27.8,29.54,SW,218,0.0,0.0,96,0.00,,,0.00,Wunderground v.1.15,2013-02-12 10:41:00,
2013-02-12 05:46:00,28.6,27.6,29.53,SW,218,0.0,0.0,96,0.00,,,0.00,Wunderground v.1.15,2013-02-12 10:46:00,
2013-02-12 05:52:00,28.4,27.4,29.54,SW,218,0.0,0.0,96,0.00,,,0.00,Wunderground v.1.15,2013-02-12 10:52:00,
2013-02-12 05:59:00,28.3,27.3,29.54,SW,218,0.0,0.0,96,0.00,,,0.00,Wunderground v.1.15,2013-02-12 10:59:00,
2013-02-12 06:04:00,28.4,27.7,29.54,SW,219,0.0,0.0,97,0.00,,,0.00,Wunderground v.1.15,2013-02-12 11:04:00,
2013-02-12 06:09:00,28.6,27.9,29.54,SW,218,0.0,0.0,97,0.00,,,0.00,Wunderground v.1.15,2013-02-12 11:09:00,
2013-02-12 06:14:00,28.7,28.0,29.55,SW,231,0.0,0.0,97,0.00,,,0.00,Wunderground v.1.15,2013-02-12 11:14:00,
2013-02-12 06:19:00,29.0,28.3,29.55,SW,214,0.0,0.0,97,0.00,,,0.00,Wunderground v.1.15,2013-02-12 11:19:00,
2013-02-12 06:25:00,29.3,28.6,29.55,SSW,208,0.0,1.0,97,0.00,,,0.00,Wunderground v.1.15,2013-02-12 11:25:00,
2013-02-12 06:31:00,29.7,29.0,29.55,SW,224,0.0,2.0,97,0.00,,,0.00,Wunderground v.1.15,2013-02-12 11:31:00,
2013-02-12 06:36:00,29.7,28.7,29.55,SW,224,0.0,2.0,96,0.00,,,0.00,Wunderground v.1.15,2013-02-12 11:36:00,
2013-02-12 06:42:00,29.5,28.5,29.55,SW,224,0.0,0.0,96,0.00,,,0.00,Wunderground v.1.15,2013-02-12 11:42:00,
2013-02-12 06:47:00,29.3,28.3,29.55,SW,224,0.0,0.0,96,0.00,,,0.00,Wunderground v.1.15,2013-02-12 11:47:00,
2013-02-12 06:52:00,29.1,28.1,29.55,SW,224,0.0,0.0,96,0.00,,,0.00,Wunderground v.1.15,2013-02-12 11:52:00,
2013-02-12 06:58:00,28.8,27.8,29.55,SW,224,0.0,0.0,96,0.00,,,0.00,Wunderground v.1.15,2013-02-12 11:58:00,
2013-02-12 07:04:00,28.6,27.6,29.56,WSW,245,0.0,0.0,96,0.00,,,0.00,Wunderground v.1.15,2013-02-12 12:04:00,
2013-02-12 07:09:00,28.6,27.6,29.55,WSW,242,0.0,0.0,96,0.00,,,0.00,Wunderground v.1.15,2013-02-12 12:09:00,
2013-02-12 07:15:00,28.5,27.5,29.55,WSW,242,0.0,0.0,96,0.00,,,0.00,Wunderground v.1.15,2013-02-12 12:15:00,
2013-02-12 07:20:00,28.3,27.3,29.56,WSW,242,0.0,0.0,96,0.00,,,0.00,Wunderground v.1.15,2013-02-12 12:20:00,
2013-02-12 07:25:00,28.2,27.2,29.56,WSW,242,0.0,0.0,96,0.00,,,0.00,Wunderground v.1.15,2013-02-12 12:25:00,
2013-02-12 07:30:00,28.6,27.9,29.56,SW,225,0.0,0.0,97,0.00,,,0.00,Wunderground v.1.15,2013-02-12 12:30:00,
2013-02-12 07:36:00,28.9,28.2,29.56,SSW,201,0.0,1.0,97,0.00,,,0.00,Wunderground v.1.15,2013-02-12 12:36:00,
2013-02-12 07:42:00,29.4,28.7,29.56,SW,221,0.0,0.0,97,0.00,,,0.00,Wunderground v.1.15,2013-02-12 12:42:00,
2013-02-12 07:48:00,29.8,28.8,29.56,SW,222,0.0,1.0,96,0.00,,,0.00,Wunderground v.1.15,2013-02-12 12:48:00,
2013-02-12 07:54:00,30.2,29.2,29.56,SW,214,0.0,1.0,96,0.00,,,0.00,Wunderground v.1.15,2013-02-12 12:54:00,
2013-02-12 08:00:00,30.9,29.6,29.56,SW,233,1.0,1.0,95,0.00,,,0.00,Wunderground v.1.15,2013-02-12 13:00:00,
2013-02-12 08:05:00,31.2,29.7,29.56,SW,231,1.0,2.0,94,0.00,,,0.00,Wunderground v.1.15,2013-02-12 13:05:00,
2013-02-12 08:10:00,31.5,30.0,29.56,SSW,208,1.0,5.0,94,0.00,,,0.00,Wunderground v.1.15,2013-02-12 13:10:00,
2013-02-12 08:15:00,31.8,30.0,29.56,SW,236,2.0,5.0,93,0.00,,,0.00,Wunderground v.1.15,2013-02-12 13:15:00,
2013-02-12 08:20:00,32.4,30.6,29.56,SW,226,2.0,2.0,93,0.00,,,0.00,Wunderground v.1.15,2013-02-12 13:20:00,
2013-02-12 08:26:00,32.9,30.8,29.56,SW,231,2.0,2.0,92,0.00,,,0.00,Wunderground v.1.15,2013-02-12 13:26:00,
2013-02-12 08:32:00,33.1,31.0,29.56,WSW,243,1.0,1.0,92,0.00,,,0.00,Wunderground v.1.15,2013-02-12 13:32:00,
2013-02-12 08:39:00,33.2,30.9,29.56,WSW,240,1.0,4.0,91,0.00,,,0.00,Wunderground v.1.15,2013-02-12 13:39:00,
2013-02-12 08:45:00,33.4,31.1,29.56,SSW,212,1.0,2.0,91,0.00,,,0.00,Wunderground v.1.15,2013-02-12 13:45:00,
2013-02-12 08:51:00,33.5,31.2,29.56,SW,222,1.0,4.0,91,0.00,,,0.00,Wunderground v.1.15,2013-02-12 13:51:00,
2013-02-12 08:57:00,33.6,31.3,29.56,SW,222,1.0,4.0,91,0.00,,,0.00,Wunderground v.1.15,2013-02-12 13:57:00,
2013-02-12 09:04:00,33.7,31.1,29.56,WSW,255,1.0,1.0,90,0.00,,,0.00,Wunderground v.1.15,2013-02-12 14:04:00,
2013-02-12 09:10:00,33.8,31.2,29.56,WSW,252,1.0,1.0,90,0.00,,,0.00,Wunderground v.1.15,2013-02-12 14:10:00,
2013-02-12 09:15:00,34.1,31.5,29.56,SW,225,1.0,1.0,90,0.00,,,0.00,Wunderground v.1.15,2013-02-12 14:15:00,
2013-02-12 09:20:00,34.4,31.5,29.56,SSW,210,1.0,1.0,89,0.00,,,0.00,Wunderground v.1.15,2013-02-12 14:20:00,
2013-02-12 09:26:00,34.7,32.1,29.57,WSW,240,1.0,2.0,90,0.00,,,0.00,Wunderground v.1.15,2013-02-12 14:26:00,
2013-02-12 09:32:00,34.7,31.2,29.57,SSW,201,1.0,1.0,87,0.00,,,0.00,Wunderground v.1.15,2013-02-12 14:32:00,
2013-02-12 09:38:00,34.7,31.5,29.57,WSW,240,1.0,1.0,88,0.00,,,0.00,Wunderground v.1.15,2013-02-12 14:38:00,
2013-02-12 09:44:00,35.1,31.9,29.57,SW,218,1.0,5.0,88,0.00,,,0.00,Wunderground v.1.15,2013-02-12 14:44:00,
2013-02-12 09:50:00,36.2,32.7,29.56,WNW,290,1.0,1.0,87,0.00,,,0.00,Wunderground v.1.15,2013-02-12 14:50:00,
2013-02-12 09:55:00,36.8,33.0,29.57,SSW,207,2.0,5.0,86,0.00,,,0.00,Wunderground v.1.15,2013-02-12 14:55:00,
2013-02-12 10:00:00,37.3,32.9,29.56,SW,221,3.0,4.0,84,0.00,,,0.00,Wunderground v.1.15,2013-02-12 15:00:00,
2013-02-12 10:05:00,37.8,33.7,29.56,SW,219,2.0,7.0,85,0.00,,,0.01,Wunderground v.1.15,2013-02-12 15:05:00,
2013-02-12 10:11:00,38.1,33.7,29.57,SW,226,2.0,3.0,84,0.00,,,0.01,Wunderground v.1.15,2013-02-12 15:11:00,
2013-02-12 10:17:00,38.7,34.3,29.57,South,190,2.0,3.0,84,0.00,,,0.01,Wunderground v.1.15,2013-02-12 15:17:00,
2013-02-12 10:23:00,39.3,34.3,29.57,SSW,208,1.0,2.0,82,0.04,,,0.02,Wunderground v.1.15,2013-02-12 15:23:00,
2013-02-12 10:29:00,39.6,34.2,29.57,West,260,2.0,4.0,81,0.07,,,0.03,Wunderground v.1.15,2013-02-12 15:29:00,
2013-02-12 10:35:00,39.7,34.0,29.58,SW,219,3.0,7.0,80,0.07,,,0.03,Wunderground v.1.15,2013-02-12 15:35:00,
2013-02-12 10:40:00,40.0,34.3,29.58,SSE,149,2.0,2.0,80,0.07,,,0.04,Wunderground v.1.15,2013-02-12 15:40:00,
2013-02-12 10:46:00,40.7,35.0,29.57,SSW,207,2.0,3.0,80,0.07,,,0.05,Wunderground v.1.15,2013-02-12 15:46:00,
2013-02-12 10:52:00,41.7,35.7,29.57,WSW,249,1.0,2.0,79,0.07,,,0.05,Wunderground v.1.15,2013-02-12 15:52:00,
2013-02-12 10:58:00,42.0,35.0,29.58,SSE,161,2.0,4.0,76,0.08,,,0.06,Wunderground v.1.15,2013-02-12 15:58:00,
2013-02-12 11:04:00,42.5,34.1,29.58,SW,233,2.0,2.0,72,0.09,,,0.07,Wunderground v.1.15,2013-02-12 16:04:00,
2013-02-12 11:09:00,43.1,35.0,29.58,SE,130,1.0,3.0,73,0.08,,,0.08,Wunderground v.1.15,2013-02-12 16:09:00,
2013-02-12 11:15:00,43.2,34.4,29.58,WSW,250,2.0,6.0,71,0.09,,,0.09,Wunderground v.1.15,2013-02-12 16:15:00,
2013-02-12 11:20:00,43.1,34.7,29.57,SE,130,3.0,3.0,72,0.09,,,0.10,Wunderground v.1.15,2013-02-12 16:20:00,
2013-02-12 11:26:00,43.0,33.9,29.57,SW,215,3.0,7.0,70,0.10,,,0.11,Wunderground v.1.15,2013-02-12 16:26:00,
2013-02-12 11:31:00,43.2,33.7,29.57,SSW,212,4.0,5.0,69,0.10,,,0.11,Wunderground v.1.15,2013-02-12 16:31:00,
2013-02-12 11:37:00,43.4,34.6,29.57,WSW,248,3.0,5.0,71,0.09,,,0.12,Wunderground v.1.15,2013-02-12 16:37:00,
2013-02-12 11:42:00,43.6,34.1,29.57,SW,231,3.0,4.0,69,0.11,,,0.13,Wunderground v.1.15,2013-02-12 16:42:00,
2013-02-12 11:48:00,44.5,34.2,29.57,SW,232,2.0,4.0,67,0.11,,,0.14,Wunderground v.1.15,2013-02-12 16:48:00,
2013-02-12 11:54:00,45.2,33.7,29.57,SSW,211,1.0,2.0,64,0.08,,,0.15,Wunderground v.1.15,2013-02-12 16:54:00,
2013-02-12 12:00:00,45.3,33.0,29.57,South,188,2.0,2.0,62,0.08,,,0.16,Wunderground v.1.15,2013-02-12 17:00:00,
2013-02-12 12:05:00,44.7,32.9,29.57,WSW,248,2.0,4.0,63,0.08,,,0.16,Wunderground v.1.15,2013-02-12 17:05:00,
2013-02-12 12:10:00,44.0,31.4,29.57,SW,218,2.0,4.0,61,0.06,,,0.17,Wunderground v.1.15,2013-02-12 17:10:00,
2013-02-12 12:15:00,44.3,31.3,29.57,SSW,202,3.0,5.0,60,0.06,,,0.17,Wunderground v.1.15,2013-02-12 17:15:00,
2013-02-12 12:21:00,44.3,30.9,29.57,WNW,290,3.0,3.0,59,0.05,,,0.17,Wunderground v.1.15,2013-02-12 17:21:00,
2013-02-12 12:26:00,43.8,30.0,29.57,SSW,208,2.0,3.0,58,0.00,,,0.17,Wunderground v.1.15,2013-02-12 17:26:00,
2013-02-12 12:32:00,43.1,30.1,29.57,SSW,205,1.0,2.0,60,0.00,,,0.18,Wunderground v.1.15,2013-02-12 17:32:00,
2013-02-12 12:37:00,42.5,30.4,29.57,SSW,204,2.0,3.0,62,0.00,,,0.18,Wunderground v.1.15,2013-02-12 17:37:00,
2013-02-12 12:43:00,42.3,29.8,29.57,SSW,197,2.0,3.0,61,0.00,,,0.18,Wunderground v.1.15,2013-02-12 17:43:00,
2013-02-12 12:49:00,42.2,29.7,29.58,SSE,156,2.0,10.0,61,0.00,,,0.19,Wunderground v.1.15,2013-02-12 17:49:00,
2013-02-12 12:54:00,42.7,29.4,29.57,WSW,238,3.0,5.0,59,0.00,,,0.19,Wunderground v.1.15,2013-02-12 17:54:00,
2013-02-12 13:00:00,43.6,28.9,29.58,West,276,3.0,7.0,56,0.06,,,0.20,Wunderground v.1.15,2013-02-12 18:00:00,
2013-02-12 13:05:00,44.0,29.3,29.58,SW,235,3.0,7.0,56,0.06,,,0.20,Wunderground v.1.15,2013-02-12 18:05:00,
2013-02-12 13:10:00,44.1,29.4,29.58,SW,222,3.0,3.0,56,0.05,,,0.21,Wunderground v.1.15,2013-02-12 18:10:00,
2013-02-12 13:16:00,44.6,29.4,29.58,WSW,238,4.0,6.0,55,0.05,,,0.21,Wunderground v.1.15,2013-02-12 18:16:00,
2013-02-12 13:21:00,44.9,29.7,29.58,East,94,4.0,4.0,55,0.05,,,0.21,Wunderground v.1.15,2013-02-12 18:21:00,
2013-02-12 13:26:00,45.1,29.9,29.58,SSW,195,3.0,5.0,55,0.05,,,0.22,Wunderground v.1.15,2013-02-12 18:26:00,
2013-02-12 13:32:00,45.4,29.7,29.58,West,269,3.0,5.0,54,0.05,,,0.22,Wunderground v.1.15,2013-02-12 18:32:00,
2013-02-12 13:38:00,45.1,29.4,29.58,South,180,3.0,5.0,54,0.04,,,0.23,Wunderground v.1.15,2013-02-12 18:38:00,
2013-02-12 13:43:00,45.2,29.5,29.58,West,277,2.0,4.0,54,0.04,,,0.23,Wunderground v.1.15,2013-02-12 18:43:00,
2013-02-12 13:49:00,45.3,29.6,29.58,SW,221,3.0,4.0,54,0.04,,,0.23,Wunderground v.1.15,2013-02-12 18:49:00,
2013-02-12 13:54:00,45.4,29.3,29.58,West,259,3.0,4.0,53,0.00,,,0.23,Wunderground v.1.15,2013-02-12 18:54:00,
2013-02-12 14:00:00,45.3,29.2,29.58,SW,232,3.0,3.0,53,0.00,,,0.24,Wunderground v.1.15,2013-02-12 19:00:00,
2013-02-12 14:05:00,44.9,28.8,29.58,West,276,2.0,3.0,53,0.00,,,0.24,Wunderground v.1.15,2013-02-12 19:05:00,
2013-02-12 14:11:00,44.5,28.9,29.59,East,82,2.0,2.0,54,0.00,,,0.24,Wunderground v.1.15,2013-02-12 19:11:00,
2013-02-12 14:17:00,44.3,28.7,29.59,WSW,250,2.0,5.0,54,0.00,,,0.24,Wunderground v.1.15,2013-02-12 19:17:00,
2013-02-12 14:22:00,44.1,28.0,29.59,SSW,212,2.0,2.0,53,0.00,,,0.24,Wunderground v.1.15,2013-02-12 19:22:00,
2013-02-12 14:28:00,43.6,28.5,29.59,West,270,2.0,6.0,55,0.00,,,0.24,Wunderground v.1.15,2013-02-12 19:28:00,
2013-02-12 14:33:00,43.3,28.2,29.59,SW,214,2.0,3.0,55,0.00,,,0.24,Wunderground v.1.15,2013-02-12 19:33:00,
2013-02-12 14:38:00,43.3,28.2,29.59,WSW,243,2.0,3.0,55,0.00,,,0.24,Wunderground v.1.15,2013-02-12 19:38:00,
2013-02-12 14:44:00,43.2,28.1,29.60,WSW,246,1.0,6.0,55,0.00,,,0.24,Wunderground v.1.15,2013-02-12 19:44:00,
2013-02-12 14:49:00,43.0,27.9,29.60,SW,218,2.0,6.0,55,0.00,,,0.24,Wunderground v.1.15,2013-02-12 19:49:00,
2013-02-12 14:54:00,42.8,27.7,29.60,WSW,237,3.0,11.0,55,0.00,,,0.24,Wunderground v.1.15,2013-02-12 19:54:00,
2013-02-12 15:00:00,42.7,28.1,29.60,SW,219,2.0,7.0,56,0.00,,,0.24,Wunderground v.1.15,2013-02-12 20:00:00,
2013-02-12 15:05:00,42.7,28.1,29.60,SW,235,2.0,7.0,56,0.00,,,0.24,Wunderground v.1.15,2013-02-12 20:05:00,
2013-02-12 15:10:00,42.9,28.3,29.61,SW,235,2.0,2.0,56,0.00,,,0.24,Wunderground v.1.15,2013-02-12 20:10:00,
2013-02-12 15:16:00,43.5,28.8,29.61,SSW,203,1.0,4.0,56,0.00,,,0.24,Wunderground v.1.15,2013-02-12 20:16:00,
2013-02-12 15:22:00,44.0,28.0,29.61,WSW,246,2.0,3.0,53,0.00,,,0.24,Wunderground v.1.15,2013-02-12 20:22:00,
2013-02-12 15:27:00,44.4,28.3,29.61,West,274,3.0,4.0,53,0.00,,,0.24,Wunderground v.1.15,2013-02-12 20:27:00,
2013-02-12 15:33:00,44.1,28.0,29.61,ESE,104,3.0,6.0,53,0.00,,,0.24,Wunderground v.1.15,2013-02-12 20:33:00,
2013-02-12 15:39:00,44.3,27.8,29.61,West,270,3.0,7.0,52,0.00,,,0.24,Wunderground v.1.15,2013-02-12 20:39:00,
2013-02-12 15:45:00,44.4,28.3,29.61,SSW,207,3.0,6.0,53,0.00,,,0.24,Wunderground v.1.15,2013-02-12 20:45:00,
2013-02-12 15:50:00,44.3,27.8,29.61,NNE,23,4.0,4.0,52,0.00,,,0.24,Wunderground v.1.15,2013-02-12 20:50:00,
2013-02-12 15:56:00,44.3,28.2,29.61,West,281,3.0,5.0,53,0.00,,,0.24,Wunderground v.1.15,2013-02-12 20:56:00,
2013-02-12 16:01:00,43.5,27.9,29.62,NW,321,2.0,3.0,54,0.00,,,0.24,Wunderground v.1.15,2013-02-12 21:01:00,
2013-02-12 16:07:00,42.6,27.5,29.62,WSW,252,2.0,5.0,55,0.00,,,0.24,Wunderground v.1.15,2013-02-12 21:07:00,
2013-02-12 16:12:00,41.9,27.8,29.62,WNW,285,3.0,3.0,57,0.00,,,0.24,Wunderground v.1.15,2013-02-12 21:12:00,
2013-02-12 16:17:00,41.3,27.6,29.62,SE,141,3.0,5.0,58,0.00,,,0.24,Wunderground v.1.15,2013-02-12 21:17:00,
2013-02-12 16:23:00,40.9,27.7,29.62,NNW,330,3.0,5.0,59,0.00,,,0.24,Wunderground v.1.15,2013-02-12 21:23:00,
2013-02-12 16:29:00,40.6,27.8,29.63,ENE,65,2.0,5.0,60,0.00,,,0.24,Wunderground v.1.15,2013-02-12 21:29:00,
2013-02-12 16:34:00,40.4,27.6,29.63,SW,223,1.0,2.0,60,0.00,,,0.24,Wunderground v.1.15,2013-02-12 21:34:00,
2013-02-12 16:39:00,40.4,28.0,29.63,East,79,2.0,3.0,61,0.00,,,0.24,Wunderground v.1.15,2013-02-12 21:39:00,
2013-02-12 16:45:00,40.2,27.8,29.63,West,273,2.0,4.0,61,0.00,,,0.24,Wunderground v.1.15,2013-02-12 21:45:00,
2013-02-12 16:51:00,40.1,28.1,29.63,WSW,250,2.0,2.0,62,0.00,,,0.24,Wunderground v.1.15,2013-02-12 21:51:00,
2013-02-12 16:56:00,40.0,28.0,29.64,SSE,165,2.0,10.0,62,0.00,,,0.24,Wunderground v.1.15,2013-02-12 21:56:00,
2013-02-12 17:01:00,39.8,28.2,29.64,SW,214,2.0,2.0,63,0.00,,,0.24,Wunderground v.1.15,2013-02-12 22:01:00,
2013-02-12 17:07:00,39.6,28.0,29.64,NNE,12,2.0,3.0,63,0.00,,,0.24,Wunderground v.1.15,2013-02-12 22:07:00,
2013-02-12 17:12:00,39.4,28.2,29.64,West,269,3.0,3.0,64,0.00,,,0.24,Wunderground v.1.15,2013-02-12 22:12:00,
2013-02-12 17:18:00,39.3,28.1,29.64,West,277,3.0,4.0,64,0.00,,,0.24,Wunderground v.1.15,2013-02-12 22:18:00,
2013-02-12 17:23:00,39.2,28.0,29.64,WSW,238,3.0,5.0,64,0.00,,,0.24,Wunderground v.1.15,2013-02-12 22:23:00,
2013-02-12 17:29:00,39.0,28.2,29.64,SSE,162,2.0,5.0,65,0.00,,,0.24,Wunderground v.1.15,2013-02-12 22:29:00,
2013-02-12 17:34:00,38.9,28.1,29.65,ESE,117,3.0,5.0,65,0.00,,,0.24,Wunderground v.1.15,2013-02-12 22:34:00,
2013-02-12 17:39:00,38.8,28.0,29.65,SSW,211,3.0,5.0,65,0.00,,,0.24,Wunderground v.1.15,2013-02-12 22:39:00,
2013-02-12 17:45:00,38.7,28.3,29.65,South,191,2.0,4.0,66,0.00,,,0.24,Wunderground v.1.15,2013-02-12 22:45:00,
2013-02-12 17:51:00,38.5,28.5,29.66,West,260,1.0,3.0,67,0.00,,,0.24,Wunderground v.1.15,2013-02-12 22:51:00,
2013-02-12 17:56:00,38.5,28.1,29.66,SW,222,1.0,3.0,66,0.00,,,0.24,Wunderground v.1.15,2013-02-12 22:56:00,
2013-02-12 18:01:00,38.5,28.1,29.66,SSW,205,2.0,2.0,66,0.00,,,0.24,Wunderground v.1.15,2013-02-12 23:01:00,
2013-02-12 18:06:00,38.5,28.1,29.67,North,351,2.0,3.0,66,0.00,,,0.24,Wunderground v.1.15,2013-02-12 23:06:00,
2013-02-12 18:12:00,38.3,28.3,29.66,WSW,252,1.0,2.0,67,0.00,,,0.24,Wunderground v.1.15,2013-02-12 23:12:00,
2013-02-12 18:17:00,38.2,28.2,29.67,SW,219,1.0,3.0,67,0.00,,,0.24,Wunderground v.1.15,2013-02-12 23:17:00,
2013-02-12 18:22:00,38.0,28.0,29.67,WSW,248,1.0,4.0,67,0.00,,,0.24,Wunderground v.1.15,2013-02-12 23:22:00,
2013-02-12 18:28:00,37.9,28.3,29.67,SW,214,1.0,4.0,68,0.00,,,0.24,Wunderground v.1.15,2013-02-12 23:28:00,
2013-02-12 18:34:00,37.7,28.1,29.67,SSW,213,0.0,1.0,68,0.00,,,0.24,Wunderground v.1.15,2013-02-12 23:34:00,
2013-02-12 18:39:00,37.7,28.4,29.68,SW,218,0.0,1.0,69,0.00,,,0.24,Wunderground v.1.15,2013-02-12 23:39:00,
2013-02-12 18:45:00,37.6,28.3,29.67,SSE,159,0.0,3.0,69,0.00,,,0.24,Wunderground v.1.15,2013-02-12 23:45:00,
2013-02-12 18:50:00,37.5,28.6,29.67,SW,224,0.0,1.0,70,0.00,,,0.24,Wunderground v.1.15,2013-02-12 23:50:00,
2013-02-12 18:55:00,37.3,28.4,29.68,SSW,213,0.0,1.0,70,0.00,,,0.24,Wunderground v.1.15,2013-02-12 23:55:00,
2013-02-12 19:00:00,37.0,28.5,29.68,WSW,249,0.0,0.0,71,0.00,,,0.24,Wunderground v.1.15,2013-02-13 00:00:00,
2013-02-12 19:06:00,36.7,28.2,29.68,WSW,242,1.0,1.0,71,0.00,,,0.24,Wunderground v.1.15,2013-02-13 00:06:00,
2013-02-12 19:11:00,36.7,28.5,29.68,WNW,282,1.0,3.0,72,0.00,,,0.24,Wunderground v.1.15,2013-02-13 00:11:00,
2013-02-12 19:17:00,36.6,28.4,29.69,SW,231,1.0,3.0,72,0.00,,,0.24,Wunderground v.1.15,2013-02-13 00:17:00,
2013-02-12 19:23:00,36.5,28.3,29.69,SW,232,0.0,2.0,72,0.00,,,0.24,Wunderground v.1.15,2013-02-13 00:23:00,
2013-02-12 19:28:00,36.3,28.1,29.69,WNW,298,0.0,2.0,72,0.00,,,0.24,Wunderground v.1.15,2013-02-13 00:28:00,
2013-02-12 19:34:00,36.0,28.2,29.69,WNW,297,0.0,0.0,73,0.00,,,0.24,Wunderground v.1.15,2013-02-13 00:34:00,
2013-02-12 19:40:00,35.8,28.0,29.69,West,280,0.0,0.0,73,0.00,,,0.24,Wunderground v.1.15,2013-02-13 00:40:00,
2013-02-12 19:45:00,35.6,27.8,29.69,WSW,257,0.0,0.0,73,0.00,,,0.24,Wunderground v.1.15,2013-02-13 00:45:00,
2013-02-12 19:51:00,35.0,27.9,29.70,WSW,257,0.0,0.0,75,0.00,,,0.24,Wunderground v.1.15,2013-02-13 00:51:00,
2013-02-12 19:56:00,34.3,27.8,29.70,WSW,257,0.0,0.0,77,0.00,,,0.24,Wunderground v.1.15,2013-02-13 00:56:00,
2013-02-12 20:01:00,33.7,27.9,29.70,WSW,257,0.0,0.0,79,0.00,,,0.24,Wunderground v.1.15,2013-02-13 01:01:00,
2013-02-12 20:07:00,33.4,27.6,29.70,WSW,257,0.0,0.0,79,0.00,,,0.24,Wunderground v.1.15,2013-02-13 01:07:00,
2013-02-12 20:13:00,33.1,27.6,29.70,WSW,257,0.0,0.0,80,0.00,,,0.24,Wunderground v.1.15,2013-02-13 01:13:00,
2013-02-12 20:18:00,32.9,27.4,29.70,WSW,257,0.0,0.0,80,0.00,,,0.24,Wunderground v.1.15,2013-02-13 01:18:00,
2013-02-12 20:24:00,32.8,27.6,29.72,WSW,257,0.0,0.0,81,0.00,,,0.24,Wunderground v.1.15,2013-02-13 01:24:00,
2013-02-12 20:29:00,32.7,27.2,29.72,WSW,257,0.0,0.0,80,0.00,,,0.24,Wunderground v.1.15,2013-02-13 01:29:00,
2013-02-12 20:34:00,32.3,27.1,29.72,WSW,257,0.0,0.0,81,0.00,,,0.24,Wunderground v.1.15,2013-02-13 01:34:00,
2013-02-12 20:40:00,31.8,26.9,29.72,WSW,257,0.0,0.0,82,0.00,,,0.24,Wunderground v.1.15,2013-02-13 01:40:00,
2013-02-12 20:46:00,31.7,26.8,29.72,WSW,257,0.0,0.0,82,0.00,,,0.24,Wunderground v.1.15,2013-02-13 01:46:00,
2013-02-12 20:51:00,32.0,27.1,29.73,WSW,240,0.0,0.0,82,0.00,,,0.24,Wunderground v.1.15,2013-02-13 01:51:00,
2013-02-12 20:56:00,32.1,26.9,29.73,SW,215,0.0,0.0,81,0.00,,,0.24,Wunderground v.1.15,2013-02-13 01:56:00,
2013-02-12 21:01:00,32.2,27.0,29.74,SW,215,0.0,0.0,81,0.00,,,0.24,Wunderground v.1.15,2013-02-13 02:01:00,
2013-02-12 21:07:00,32.5,27.3,29.74,SW,219,0.0,1.0,81,0.00,,,0.24,Wunderground v.1.15,2013-02-13 02:07:00,
2013-02-12 21:13:00,32.7,27.2,29.75,WSW,257,0.0,3.0,80,0.00,,,0.24,Wunderground v.1.15,2013-02-13 02:13:00,
2013-02-12 21:19:00,33.1,27.3,29.75,SW,219,0.0,3.0,79,0.00,,,0.24,Wunderground v.1.15,2013-02-13 02:19:00,
2013-02-12 21:25:00,33.3,27.5,29.75,West,275,0.0,1.0,79,0.00,,,0.24,Wunderground v.1.15,2013-02-13 02:25:00,
2013-02-12 21:30:00,33.5,27.7,29.76,WSW,246,0.0,1.0,79,0.00,,,0.24,Wunderground v.1.15,2013-02-13 02:30:00,
2013-02-12 21:36:00,34.0,27.5,29.76,SW,228,1.0,3.0,77,0.00,,,0.24,Wunderground v.1.15,2013-02-13 02:36:00,
2013-02-12 21:42:00,34.5,27.7,29.76,SW,229,0.0,2.0,76,0.00,,,0.24,Wunderground v.1.15,2013-02-13 02:42:00,
2013-02-12 21:47:00,34.7,27.6,29.76,SW,222,0.0,2.0,75,0.00,,,0.24,Wunderground v.1.15,2013-02-13 02:47:00,
2013-02-12 21:53:00,34.9,27.5,29.76,SW,226,0.0,2.0,74,0.00,,,0.24,Wunderground v.1.15,2013-02-13 02:53:00,
2013-02-12 21:58:00,35.2,27.7,29.76,SW,214,1.0,2.0,74,0.00,,,0.24,Wunderground v.1.15,2013-02-13 02:58:00,
2013-02-12 22:03:00,35.1,27.6,29.76,SSW,194,1.0,2.0,74,0.00,,,0.24,Wunderground v.1.15,2013-02-13 03:03:00,
2013-02-12 22:09:00,34.9,27.8,29.76,SSW,211,1.0,2.0,75,0.00,,,0.24,Wunderground v.1.15,2013-02-13 03:09:00,
2013-02-12 22:15:00,34.9,27.8,29.76,SW,222,1.0,1.0,75,0.00,,,0.24,Wunderground v.1.15,2013-02-13 03:15:00,
2013-02-12 22:21:00,34.9,27.8,29.76,SE,145,1.0,1.0,75,0.00,,,0.24,Wunderground v.1.15,2013-02-13 03:21:00,
2013-02-12 22:27:00,34.7,27.6,29.76,SW,232,0.0,1.0,75,0.00,,,0.24,Wunderground v.1.15,2013-02-13 03:27:00,
2013-02-12 22:32:00,34.4,27.6,29.75,SW,233,0.0,1.0,76,0.00,,,0.24,Wunderground v.1.15,2013-02-13 03:32:00,
2013-02-12 22:38:00,34.2,27.4,29.75,SW,225,0.0,1.0,76,0.00,,,0.24,Wunderground v.1.15,2013-02-13 03:38:00,
2013-02-12 22:43:00,34.0,27.5,29.75,WSW,252,1.0,1.0,77,0.00,,,0.24,Wunderground v.1.15,2013-02-13 03:43:00,
2013-02-12 22:49:00,33.6,27.5,29.75,WSW,252,1.0,1.0,78,0.00,,,0.24,Wunderground v.1.15,2013-02-13 03:49:00,
2013-02-12 22:54:00,32.8,27.3,29.75,WSW,252,0.0,0.0,80,0.00,,,0.24,Wunderground v.1.15,2013-02-13 03:54:00,
2013-02-12 23:00:00,32.1,26.9,29.74,WSW,251,0.0,0.0,81,0.00,,,0.24,Wunderground v.1.15,2013-02-13 04:00:00,
2013-02-12 23:06:00,31.9,26.7,29.74,NNW,339,0.0,0.0,81,0.00,,,0.24,Wunderground v.1.15,2013-02-13 04:06:00,
2013-02-12 23:11:00,31.6,26.7,29.73,NNW,339,0.0,0.0,82,0.00,,,0.24,Wunderground v.1.15,2013-02-13 04:11:00,
2013-02-12 23:16:00,30.9,26.3,29.73,NNW,339,0.0,0.0,83,0.00,,,0.24,Wunderground v.1.15,2013-02-13 04:16:00,
2013-02-12 23:21:00,30.2,26.2,29.73,NNW,338,0.0,0.0,85,0.00,,,0.24,Wunderground v.1.15,2013-02-13 04:21:00,
2013-02-12 23:26:00,29.7,26.0,29.73,NNW,335,0.0,0.0,86,0.00,,,0.24,Wunderground v.1.15,2013-02-13 04:26:00,
2013-02-12 23:31:00,29.6,25.9,29.73,NNW,335,0.0,0.0,86,0.00,,,0.24,Wunderground v.1.15,2013-02-13 04:31:00,
2013-02-12 23:36:00,29.4,25.7,29.73,WSW,253,0.0,0.0,86,0.00,,,0.24,Wunderground v.1.15,2013-02-13 04:36:00,
2013-02-12 23:42:00,29.2,26.1,29.73,SW,226,0.0,0.0,88,0.00,,,0.24,Wunderground v.1.15,2013-02-13 04:42:00,
2013-02-12 23:47:00,29.6,26.5,29.74,WSW,240,0.0,1.0,88,0.00,,,0.24,Wunderground v.1.15,2013-02-13 04:47:00,
2013-02-12 23:53:00,30.0,26.3,29.74,SSW,203,0.0,0.0,86,0.00,,,0.24,Wunderground v.1.15,2013-02-13 04:53:00,
2013-02-12 23:58:00,30.1,26.4,29.74,SSW,203,0.0,0.0,86,0.00,,,0.24,Wunderground v.1.15,2013-02-13 04:58:00,